Location: Unspecified
(34.4740°N, 0.0000°E)
Time: 04:14:00
(UTC+00:00)

Cosmos 1141 Rocket - Visible Passes

Search period start: 04 April 2026 00:00
Search period end: 14 April 2026 00:00
Orbit: 947 x 986 km, 82.9° (Epoch: 29 March)

Date Brightness Start Highest point End Pass type
(mag) Time Alt. Az. Time Alt. Az. Time Alt. Az.
4 Apr 8.0 01:41:16 11° NNW 01:41:16 11° NNW 01:41:35 10° NNW visible
5 Apr 8.1 00:19:12 13° NNE 00:19:12 13° NNE 00:19:43 10° NNE visible
6 Apr 8.0 00:41:35 14° N 00:41:35 14° N 00:42:23 10° N visible
7 Apr 8.0 01:03:58 13° NNW 01:03:58 13° NNW 01:04:41 10° N visible
7 Apr 8.1 23:41:53 12° NNE 23:41:53 12° NNE 23:42:15 10° NNE visible
8 Apr 8.1 01:26:20 11° NNW 01:26:20 11° NNW 01:26:29 10° NNW visible
9 Apr 8.0 00:04:14 15° N 00:04:14 15° N 00:05:07 10° N visible
10 Apr 7.9 00:26:35 15° N 00:26:35 15° N 00:27:37 10° N visible
10 Apr 8.1 23:04:28 11° NNE 23:04:28 11° NNE 23:04:39 10° NNE visible
11 Apr 8.0 00:48:55 13° NNW 00:48:55 13° NNW 00:49:44 10° NNW visible
11 Apr 7.9 23:26:48 15° NNE 23:26:48 15° NNE 23:27:44 10° NNE visible
12 Apr 7.8 23:49:07 17° N 23:49:07 17° N 23:50:26 10° N visible
